Theta_e
348 346 345 344 343 339 335 335 333 332 333 334 334 336 338 336 335 334 331 333 335 336 336 339 339 339 340 342 341 342 341 338 338 336 335 335 334 334 333 332 332 330 329
350 346 344 343 341 339 335 336 332 332 332 333 333 335 334 334 333 329 331 332 332 332 333 336 339 338 339 342 342 342 340 340 338 337 335 335 333 333 332 332 331 329 328
350 346 344 342 339 338 334 334 332 333 332 332 332 333 332 332 331 328 328 329 331 332 333 334 334 335 338 340 341 341 341 340 339 339 336 334 334 333 332 331 330 329 327
348 344 345 341 338 335 333 334 332 334 333 332 331 330 330 330 331 329 324 325 330 332 332 333 332 332 335 338 340 340 340 340 340 338 337 334 333 332 332 331 329 328 325
345 342 344 341 339 338 335 336 335 334 335 334 333 331 330 330 330 329 326 324 327 330 330 329 328 328 334 337 339 339 338 338 338 338 336 334 333 332 331 330 329 327 324
342 341 344 341 340 339 338 338 338 337 335 334 334 332 331 331 329 329 328 322 323 326 327 325 327 328 328 329 331 333 336 339 339 338 336 334 333 333 332 330 328 327 323
342 340 342 338 337 339 339 339 339 338 337 336 335 334 332 332 331 328 329 326 324 323 323 325 326 325 324 325 328 330 331 333 335 336 333 332 332 331 332 330 329 328 327
342 340 339 338 338 340 342 342 339 338 338 338 336 334 334 333 332 330 329 327 325 325 325 323 323 323 322 322 323 324 327 329 330 331 331 330 330 331 331 330 329 327 325
344 343 341 338 339 340 341 341 339 336 337 337 337 336 336 334 334 332 329 328 327 326 326 325 324 322 322 322 321 321 322 324 326 328 330 330 329 327 327 326 325 325 325
345 344 342 341 339 340 340 332 331 330 332 332 336 334 333 335 335 333 329 328 327 327 326 326 325 323 322 321 321 319 319 320 322 323 325 325 325 324 322 322 324 324 326
343 343 342 341 340 339 332 332 334 333 332 332 332 331 334 334 334 333 330 328 327 328 328 327 325 323 322 322 320 318 317 317 316 315 314 314 312 311 314 317 320 322 322
343 343 343 341 339 337 333 332 334 334 334 331 331 331 332 333 332 330 332 331 327 328 328 329 328 324 323 323 322 320 320 318 315 313 312 311 311 309 310 311 309 308 309
342 340 338 338 337 335 332 332 334 334 334 333 330 330 331 332 333 331 330 332 332 327 327 329 329 326 324 323 322 322 321 320 316 313 315 315 314 314 312 312 309 307 307
340 338 337 336 334 333 333 334 334 335 335 334 334 333 331 331 331 331 331 330 330 332 329 327 329 329 327 325 322 322 321 321 321 318 316 316 316 315 315 316 310 309 312
337 337 336 335 335 334 330 328 330 331 332 331 331 331 333 334 334 335 335 334 334 333 332 329 327 328 329 327 324 323 322 321 321 320 318 318 317 317 318 318 316 311 311
335 332 328 327 327 326 323 323 323 324 324 324 325 325 327 328 330 332 333 333 334 334 333 333 332 330 327 328 328 326 324 324 321 317 312 314 315 315 316 316 316 311 310
325 324 323 323 322 321 321 322 326 324 324 323 324 323 324 324 325 326 327 330 331 333 333 331 332 331 330 327 328 328 326 325 324 318 312 312 313 313 314 315 313 310 311
321 323 325 326 327 326 324 321 321 326 328 327 324 324 324 326 326 325 326 327 330 332 331 332 331 330 330 329 327 327 326 325 324 317 312 312 312 312 313 313 312 311 311
329 329 329 329 329 328 328 327 324 324 325 327 326 326 325 326 323 323 325 326 326 327 329 330 330 330 328 327 328 327 325 322 322 319 312 312 312 311 312 312 312 311 311
330 329 328 328 328 328 330 329 330 328 328 328 326 326 327 324 325 325 320 319 323 326 327 327 328 329 328 327 328 325 323 324 324 323 318 311 313 312 312 312 312 312 311
326 325 325 324 324 325 329 330 326 326 327 328 328 327 323 322 320 319 321 321 317 320 325 325 322 318 320 320 320 322 324 323 324 322 321 319 312 314 313 313 312 312 312
322 322 322 322 323 324 325 325 327 328 327 327 327 326 324 321 320 318 317 317 319 321 323 323 319 315 317 318 318 320 322 322 322 323 323 320 316 313 313 313 312 313 312
316 316 319 321 322 322 322 323 324 325 327 326 324 322 321 320 320 318 317 317 317 317 319 321 320 315 316 317 316 316 318 319 319 318 320 320 319 317 314 313 313 313 312
316 315 315 316 317 317 321 321 323 324 324 324 323 321 320 318 317 317 316 316 316 316 318 320 319 316 315 315 315 315 315 315 315 317 318 318 317 317 316 314 314 315 312
319 319 320 320 321 322 323 323 322 322 320 320 319 318 318 318 318 317 316 316 315 315 315 315 314 314 315 315 315 314 314 314 314 313 313 313 314 315 316 315 316 315 312
316 318 318 319 319 319 320 320 319 318 318 316 315 315 314 314 313 313 313 312 313 313 313 313 313 312 311 311 312 312 313 314 314 314 314 313 313 313 314 315 314 313 314
Wind_Speed
7 6 7 7 8 9 7 6 5 3 2 2 1 3 5 5 6 8 8 7 6 7 7 6 7 8 7 12 13 13 14 17 14 18 15 14 10 7 9 8 8 9 9
8 6 8 8 9 10 8 6 4 2 2 2 1 1 2 4 5 6 5 5 5 5 6 7 6 4 6 8 11 14 14 18 14 14 20 17 13 13 11 9 10 11 10
9 8 10 9 10 9 9 6 5 5 3 2 2 2 3 3 4 3 4 4 4 3 4 5 5 5 6 7 10 13 17 16 14 10 21 20 17 15 14 13 12 12 12
10 10 11 11 11 9 9 7 6 6 6 5 4 4 4 4 4 4 3 3 4 4 3 4 4 5 7 8 10 12 14 14 12 12 18 22 19 17 15 14 14 13 12
11 11 13 12 12 10 10 8 9 8 8 6 5 5 5 5 5 4 3 2 3 4 4 3 2 3 6 7 9 12 13 15 15 16 20 23 21 19 17 15 15 15 14
12 11 14 14 13 10 10 10 9 10 11 11 9 7 7 7 6 5 3 2 3 4 4 3 3 2 4 5 6 8 11 14 15 16 20 22 21 19 17 17 17 17 12
11 12 15 15 13 11 8 10 13 14 16 16 15 11 10 9 7 6 5 5 5 4 4 4 4 4 4 5 5 6 7 9 10 14 16 17 18 17 16 17 18 16 10
14 12 15 14 12 11 10 10 11 14 16 21 20 15 17 13 10 7 7 7 7 6 5 5 5 5 4 4 4 4 5 6 9 12 13 13 14 15 14 13 13 15 14
15 12 11 12 13 12 11 9 9 10 10 12 17 21 23 16 15 11 10 9 9 9 9 7 7 6 6 5 5 4 4 5 6 7 9 12 12 12 14 15 15 14 12
15 13 11 12 12 12 10 8 5 1 1 3 6 8 11 11 15 15 14 12 10 10 10 10 9 9 8 8 7 7 7 7 7 8 9 11 12 12 13 14 12 14 12
14 13 12 12 12 12 12 10 5 1 3 3 3 5 8 12 13 15 15 15 12 11 10 10 10 11 10 10 9 9 9 8 9 10 11 12 13 13 14 15 17 15 14
12 12 12 13 14 15 15 12 7 5 2 3 4 7 4 9 12 8 14 15 15 14 12 10 11 12 12 12 12 12 11 10 11 12 12 12 12 13 13 11 13 15 18
9 12 11 12 14 14 14 12 10 8 6 5 4 5 6 7 9 10 9 12 15 19 17 14 13 13 15 16 16 15 15 14 14 15 14 13 14 13 13 12 10 10 10
10 10 10 12 13 13 12 11 11 10 8 10 12 12 8 8 8 9 10 13 20 21 22 21 20 20 19 19 19 21 21 20 19 17 16 15 16 19 18 16 14 12 10
15 11 11 12 11 11 8 5 2 3 3 6 10 13 16 15 17 19 18 18 19 21 22 25 28 28 28 25 26 26 24 25 25 24 24 23 24 23 23 22 19 16 14
15 11 9 8 7 6 2 1 3 3 4 5 6 9 10 12 14 17 18 18 19 20 26 32 33 33 34 33 32 30 28 27 27 27 27 26 25 26 28 28 25 23 19
15 10 8 7 5 3 4 3 4 4 4 5 5 6 8 8 11 12 13 14 18 20 25 25 33 36 37 37 36 33 31 30 29 29 27 25 23 22 23 24 25 25 21
13 12 8 6 3 2 4 4 4 4 3 5 7 8 8 10 9 10 10 13 14 17 21 27 28 30 37 37 38 38 34 30 32 32 30 28 26 25 24 24 22 22 22
8 8 7 6 4 5 5 4 4 5 5 6 7 9 7 9 10 11 12 13 13 15 16 19 22 24 34 35 34 35 34 33 30 31 32 33 29 27 25 24 23 25 25
7 8 8 9 9 11 11 10 9 8 8 7 7 8 7 11 10 12 15 14 15 15 16 17 17 17 21 30 30 32 32 25 29 36 35 35 29 26 26 25 25 24 25
10 11 12 12 13 14 12 13 13 13 12 9 8 8 11 12 12 11 12 13 15 14 17 17 15 14 17 21 23 23 21 21 29 32 32 33 33 30 32 27 27 26 25
14 14 13 12 9 9 9 9 9 10 12 11 11 11 12 11 12 14 14 13 12 12 13 14 13 15 14 14 17 20 21 22 24 27 29 36 37 39 37 34 35 32 28
13 14 14 15 13 11 9 8 7 5 3 4 6 6 7 9 12 12 13 14 15 14 12 13 15 15 12 12 16 16 16 17 18 22 25 27 30 33 42 46 38 36 38
3 3 6 5 4 4 4 4 5 5 4 4 6 6 7 8 9 12 13 14 14 14 15 13 12 14 15 18 18 17 17 18 19 20 24 26 27 27 34 39 41 36 39
9 10 8 6 6 7 6 6 5 5 6 6 6 7 8 9 10 11 12 12 14 15 15 14 14 15 17 20 21 22 19 16 17 16 19 20 22 27 29 29 36 38 35
18 19 19 17 18 17 15 15 15 14 14 14 14 14 13 14 14 15 15 15 15 14 13 13 13 15 17 19 19 21 22 24 25 27 25 27 30 33 30 31 35 38 44
Wind_Direction
234 254 244 224 229 235 235 229 239 252 212 169 193 216 233 254 270 279 271 249 245 252 253 255 255 244 240 219 214 208 213 210 208 192 192 182 179 167 159 160 155 147 142
242 247 226 214 216 225 225 219 224 202 180 160 156 203 247 283 302 298 270 271 266 262 246 240 246 238 226 214 217 212 209 215 208 205 192 186 184 172 174 175 170 162 154
237 237 221 210 210 217 219 221 222 226 209 185 189 243 247 259 288 299 279 260 249 247 235 229 235 228 217 206 205 213 219 216 222 221 198 195 190 187 185 185 181 178 167
229 225 216 207 202 209 210 216 225 235 236 226 223 244 265 269 279 286 292 259 234 227 223 217 228 222 208 198 200 196 206 216 216 215 214 197 199 193 195 193 185 179 178
225 218 207 200 203 212 217 225 225 227 244 251 244 245 239 248 252 264 274 244 230 227 216 201 214 199 195 195 195 198 205 215 219 221 210 201 199 198 196 198 191 187 183
220 216 203 197 206 215 225 236 249 249 240 244 239 237 237 234 248 247 246 220 209 220 225 215 196 180 173 182 195 203 211 219 223 214 206 205 211 205 210 205 197 191 191
208 210 203 197 207 213 232 258 261 260 259 258 251 252 238 228 238 242 234 230 224 224 212 195 190 191 174 168 173 179 179 184 192 206 210 215 214 216 217 212 204 206 203
204 205 204 205 208 215 237 267 262 255 268 259 255 262 243 225 230 228 232 237 231 235 231 217 213 208 192 176 167 172 182 195 199 193 201 208 215 221 217 216 221 205 212
206 213 209 210 214 225 244 251 255 265 266 269 268 278 250 223 222 223 221 236 239 241 242 231 230 220 211 206 195 188 200 206 209 206 204 206 213 212 209 208 203 199 205
207 210 212 212 215 225 232 203 187 293 326 270 276 282 288 244 240 226 220 227 236 242 245 239 240 232 220 213 211 205 209 217 216 217 214 213 213 212 209 201 208 210 219
199 215 220 225 224 218 203 209 238 259 356 340 314 313 279 258 237 233 232 229 232 243 253 251 246 237 231 224 221 215 210 217 224 222 218 217 217 215 217 218 220 213 225
197 218 231 234 228 211 216 232 237 240 276 317 272 306 323 211 201 258 247 242 235 237 241 252 256 243 240 238 234 227 222 223 225 224 213 206 200 199 203 214 228 231 230
229 231 230 224 221 223 236 241 242 244 266 275 266 316 252 240 234 224 249 264 255 241 237 238 248 248 243 240 235 232 231 230 227 221 213 211 211 209 218 226 229 226 227
250 227 223 223 232 238 248 259 268 274 279 282 278 262 242 247 240 253 272 264 260 244 240 239 239 244 247 246 238 237 238 238 237 230 226 225 224 229 228 231 231 229 221
255 236 233 233 240 244 241 243 274 302 277 267 272 267 266 259 262 271 268 268 261 260 259 247 241 241 242 242 239 239 240 241 240 241 240 235 236 238 236 236 235 227 225
227 218 200 193 194 205 157 11 29 346 334 309 290 285 275 275 270 265 269 271 266 260 260 255 253 250 247 247 245 246 245 247 246 245 244 239 239 241 239 242 238 233 232
161 160 156 145 144 127 80 52 53 356 2 351 336 333 341 318 303 296 289 285 272 268 262 264 261 259 255 251 248 247 249 253 251 246 244 240 242 244 236 233 229 231 229
141 143 160 163 155 72 50 31 14 305 315 309 307 294 315 326 323 314 301 294 292 276 284 274 273 270 254 253 251 251 252 251 251 247 242 237 237 236 232 230 231 230 231
175 184 209 230 250 277 291 320 314 303 307 299 322 325 319 325 331 327 317 315 310 305 298 294 289 289 272 260 267 265 260 260 255 254 247 242 236 230 228 231 234 235 232
232 244 255 263 270 274 270 268 264 283 290 306 330 334 320 323 322 319 319 313 307 307 308 305 298 296 288 277 278 284 280 255 260 255 248 249 241 232 230 231 231 230 231
250 257 266 270 266 263 262 255 263 274 281 293 308 311 317 321 328 328 320 313 310 303 307 310 306 304 297 292 291 288 286 271 267 263 257 242 243 236 238 233 235 233 231
256 255 257 258 261 266 270 277 274 277 284 296 300 307 317 330 330 329 332 333 326 310 300 288 289 294 289 289 295 297 294 289 280 273 263 256 245 245 245 243 235 233 231
262 257 252 249 250 258 273 286 301 313 316 317 318 326 340 345 335 336 337 336 328 328 311 292 285 289 295 303 305 295 287 285 283 284 279 274 267 247 249 249 248 253 240
327 258 238 242 259 269 268 287 329 332 337 333 330 339 335 348 355 344 344 347 348 350 341 326 308 299 298 304 306 302 296 293 293 286 280 276 273 272 280 253 251 259 242
62 66 72 76 67 72 70 79 75 68 55 37 22 14 5 357 351 354 355 359 352 349 347 340 333 327 319 319 316 308 307 302 295 295 293 297 290 280 272 264 254 244 240
75 76 74 75 74 73 74 76 72 65 61 56 47 35 25 23 19 14 5 7 7 2 0 358 360 359 355 340 327 317 299 289 287 289 286 285 286 288 278 273 262 248 245